This is the latest recevied weather packets stored in our database for station/object KC7YCE. If no packets are shown the sender has not sent any weather packets the latest 10 day(s).
| Time | Temp. | Humidity | Pressure | Rain* | Wind** | Luminosity | Snow |
|---|---|---|---|---|---|---|---|
| 1777494700 | 6.67° C | 46% | 1022.4 hPa | 0 mm | - | - | - |
| 1777494100 | 6.11° C | 48% | 1022.3 hPa | 0 mm | - | - | - |
| 1777493499 | 5.56° C | 49% | 1022.4 hPa | 0 mm | - | - | - |
| 1777492900 | 5.56° C | 49% | 1022.4 hPa | 0 mm | - | - | - |
| 1777492301 | 5° C | 51% | 1022.4 hPa | 0 mm | - | - | - |
| 1777491699 | 5° C | 49% | 1022.6 hPa | 0 mm | - | - | - |
| 1777491100 | 5.56° C | 48% | 1022.6 hPa | 0 mm | - | - | - |
| 1777490500 | 5° C | 44% | 1022.8 hPa | 0 mm | - | - | - |
| 1777489269 | 5° C | 42% | 1022.8 hPa | 0 mm | - | - | - |
| 1777488669 | 5.56° C | 42% | 1022.9 hPa | 0 mm | - | - | - |
| 1777488039 | 5° C | 45% | 1023 hPa | 0 mm | - | - | - |
| 1777487440 | 4.44° C | 45% | 1023.2 hPa | 0 mm | - | - | - |
| 1777486839 | 4.44° C | 43% | 1023.3 hPa | 0 mm | - | - | - |
| 1777486239 | 4.44° C | 45% | 1023.2 hPa | 0 mm | - | - | - |
| 1777485639 | 4.44° C | 41% | 1023.3 hPa | 0 mm | - | - | - |
| 1777483839 | 3.89° C | 46% | 1023.6 hPa | 0 mm | - | - | - |
| 1777483239 | 3.89° C | 42% | 1023.6 hPa | 0 mm | - | - | - |
| 1777482639 | 4.44° C | 43% | 1023.6 hPa | 0 mm | - | - | - |
| 1777482009 | 3.89° C | 42% | 1023.7 hPa | 0 mm | - | - | - |
| 1777481379 | 2.78° C | 43% | 1023.8 hPa | 0 mm | - | - | - |
| 1777480778 | 3.33° C | 48% | 1023.8 hPa | 0 mm | - | - | - |
| 1777480149 | 3.89° C | 46% | 1023.9 hPa | 0 mm | - | - | - |
| 1777479548 | 3.89° C | 44% | 1024 hPa | 0 mm | - | - | - |
| 1777478948 | 3.89° C | 49% | 1024 hPa | 0 mm | - | - | - |
| 1777478348 | 3.33° C | 43% | 1024.1 hPa | 0 mm | - | - | - |
* Rain latest hour (hover to see other rain measurements)
** Current wind speed in m/s (hover to see current wind gust speed)